Regional Weather Roundup
Issued by NWS New Orleans/Baton Rouge, LA

Home | Current Version | Previous Version | Text Only | Print | Product List | Glossary Off
Versions: 1 2 3 4 5 6 7 8 9 10 11 12 13 14 15 16 17 18 19 20 21 22 23 24 25 26 27 28 29 30 31 32 33 34 35 36 37 38 39 40 41 42 43 44 45 46 47 48 49 50

500
ASUS44 KLIX 311707
RWRLIX
NEW ORLEANS REGIONAL WEATHER ROUNDUP
NATIONAL WEATHER SERVICE NEW ORLEANS LA
1200 PM CDT TUE MAR 31 2015

NOTE: "FAIR" INDICATES FEW OR NO CLOUDS BELOW 12,000 FEET WITH NO
      SIGNIFICANT WEATHER AND/OR OBSTRUCTIONS TO VISIBILITY.
      SKY/WX - SKY CONDITION AND SIGNIFICANT WEATHER.
      TMP - AIR TEMPERATURE.     DP    - DEWPOINT TEMPERATURE.
      RH  - RELATIVE HUMIDITY.   PRES  - PRESSURE.
      HI  - HEAT INDEX.          WCI   - WIND CHILL INDEX.

*  THESE STATIONS ARE NOT NWS OR FAA STATIONS AND ARE NOT UNDER
   NWS QUALITY CONTROL.

LAZ038-040-048-061>063-065>067-069-311800-
SOUTHEAST LOUISIANA

CITY           SKY/WX    TMP DP  RH WIND       PRES   REMARKS
N.O. AUDUBON     N/A     82  70  66 MISG        N/A
N.O. INTL ARPT PTSUNNY   79  63  57 W13       30.13F
N.O. LAKEFRONT MOSUNNY   78  65  63 W7        30.14F
SLIDELL        PTSUNNY   76  64  66 VRB5      30.13F
BATON ROUGE    PTSUNNY   78  61  55 W14G24    30.13F
BOOTHVILLE     MOSUNNY   77  65  66 W10       30.16F
BELLE CHASSE   PTSUNNY   78  63  59 SW12G20   30.13F
BOGALUSA*        N/A     77  59  53 W10G17    30.14F
GALLIANO*      MOSUNNY   80  64  57 SW15      30.15F
NEW ROADS*     PTSUNNY   76  61  60 SW16      30.13F
GONZALES*      PTSUNNY   79  63  57 SW9       30.13F
HAMMOND*       CLOUDY    81  59  47 W10G18    30.14F
HOUMA*         MOSUNNY   79  64  61 SW10      30.14
PORT FOURCHON* MOSUNNY   77  64  65 SW10      30.19S

$$

MSZ070-080>082-311800-
SOUTHERN MISSISSIPPI

CITY           SKY/WX    TMP DP  RH WIND       PRES   REMARKS
MCCOMB         MOSUNNY   75  60  59 SW10      30.12F
GULFPORT       PTSUNNY   76  64  66 S8        30.13F
BILOXI         SUNNY     76  66  71 SW13      30.13F
PASCAGOULA     MOSUNNY   78  62  57 SW12G20   30.14F

$$

COASTAL OBSERVATIONS
LAKE AND NEARSHORE STATIONS

STATION/POSITION TIME  TEMP    WIND        PRES    WAVE
                       AIR SEA DIR/SP/G            HT/PER
                 (UTC) (F)     (DEG/KT/KT) (MB)    (FT/S)
PASCAGOULA       1600   71     240/  8/ 10 1020.8
WAVELAND YACHT   1600   73 68  270/  5/ 11 1020.7
GRAND ISLE       1600   75 70   CALM  /  3 1021.1
SOUTHWEST PASS   1600   74 55  160/  1/  2 1021.7
NEW CANAL        1600   76     240/  5/  9 1021.2
SHELL BEACH      1600   73 70  210/  9/ 12 1021.1

OFFSHORE STATIONS

STATION/POSITION TIME  TEMP    WIND        PRES    WAVE
                       AIR SEA DIR/SP/G            HT/PER
                 (UTC) (F)     (DEG/KT/KT) (MB)    (FT/S)
64 S DAUPHIN ISL 1650   72 72  230/  6/  6 1021.6    2/ 8

$$




USA.gov is the U.S. government's official web portal to all federal, state and local government web resources and services.